Location: Staunton
(38.1490°N, 79.0720°W)
Time: 14:23:31
(UTC-04:00)

ISS - Pass Details

Date: 24 May 2017
Orbit: 402 x 408 km, 51.6° (Epoch: 29 May)

Event Time Altitude Azimuth Distance (km) Brightness Sun altitude
Rises 03:45:24 0° 318° (NW) 2,327 0.2 -21.0°
Reaches altitude 10° 03:47:50 10° 335° (NNW) 1,463 -0.7 -20.7°
Maximum altitude 03:50:25 21° 27° (NNE) 972 -1.1 -20.4°
Drops below altitude 10° 03:52:59 10° 79° (E) 1,455 -0.3 -20.1°
Sets 03:55:23 0° 96° (E) 2,311 0.5 -19.8°
